Regional Weather Roundup
Issued by NWS

Home | Current Version | Previous Version | Graphics & Text | Print | Product List | Glossary On
Versions: 1 2 3 4 5 6 7 8 9 10 11 12 13 14 15 16 17 18 19 20 21 22 23 24 25 26 27
000
ASUS45 KBOI 181510
RWRID

IDAHO REGIONAL WEATHER ROUNDUP
NATIONAL WEATHER SERVICE BOISE ID
800 AM MST WED JAN 18 2017

NOTE: "FAIR" INDICATES FEW OR NO CLOUDS BELOW 12000 FEET
WITH NO SIGNIFICANT WEATHER AND/OR OBSTRUCTIONS TO VISIBILITY

IDZ012-014-181600-
SOUTHWEST IDAHO


CITY           SKY/WX    TMP DP  RH WIND       PRES   REMARKS
BOISE          LGT SNOW  16  12  84 CALM      30.02F FOG
CALDWELL       LGT SNOW  11   7  84 W3        30.09F FOG
MOUNTAIN HOME  FRZ RAIN  23  18  80 SE28      30.00F FOG     WCI   6
$$

IDZ016-017-181600-
SOUTHCENTRAL IDAHO


CITY           SKY/WX    TMP DP  RH WIND       PRES   REMARKS
BURLEY         CLEAR     17  10  74 VRB5      30.01F WCI  10
JEROME         PTCLDY    15   8  73 NE22      30.02S WCI  -3
TWIN FALLS     PTCLDY    13   9  84 E6        30.01F WCI   4
$$

IDZ019>023-181600-
SOUTHEAST IDAHO


CITY           SKY/WX    TMP DP  RH WIND       PRES   REMARKS
IDAHO FALLS    CLOUDY    -2  -5  87 N10       30.11S WCI -19
POCATELLO      CLOUDY     2  -2  83 CALM      30.10S
REXBURG        CLOUDY    -3  -7  82 NE5       30.10F WCI -13
$$

IDZ006-010-011-018-031-032-181600-
CENTRAL IDAHO MOUNTAINS


CITY           SKY/WX    TMP DP  RH WIND       PRES   REMARKS
MCCALL         LGT SNOW  23  19  85 CALM      29.90F FOG
HAILEY         MOCLDY    16   9  73 NW9       30.03F WCI   4
STANLEY          N/A     11   7  84 E6        29.95F WCI   1
SALMON         CLOUDY    -2  -6  84 CALM      30.04F
CHALLIS        CLOUDY     0  -4  83 CALM      30.00F
$$

IDZ002-004-006-007-026-181600-
NORTHERN IDAHO


CITY           SKY/WX    TMP DP  RH WIND       PRES   REMARKS
LEWISTON       LGT RAIN  34  30  85 E9        29.75F WCI  27
LOWELL           N/A     30  27  88 N5        29.86S WCI  25
COEUR D`ALENE  MIX PCPN  32  31  96 VRB3      29.68S
MULLAN PASS    SNOW      29  28  96 VRB3      29.66S VSB 1/4
$$




USA.gov is the U.S. government's official web portal to all federal, state and local government web resources and services.